Location: Little Maitland River
(43.8022°N, 81.1549°W)
Time: 15:26:55
(UTC+00:00)

Cosmos 1437 Rocket - Pass Details

Date: 09 December 2025
Orbit: 446 x 485 km, 81.2° (Epoch: 19 January)

Event Time Altitude Azimuth Distance (km) Brightness Sun altitude
Rises 11:40:18 0° 358° (N) 2,456 5.9 -11.6°
Reaches altitude 10° 11:42:30 10° 8° (N) 1,581 5.0 -11.3°
Maximum altitude 11:45:40 34° 75° (ENE) 768 4.1 -10.7°
Drops below altitude 10° 11:48:50 10° 142° (SE) 1,577 6.2 -10.2°
Sets 11:51:01 0° 152° (SSE) 2,449 7.0 -9.8°
